User: anonymous   Login
Location: Darlington Observatory
(36.4817°N, 105.8156°W)
Time: 17:37:11
(UTC-06:00)
Language:

MOS 1 - Orbit

View from above orbital plane
View from above orbital plane
View from above satellite
View from above satellite

Ground track
Ground track

The orbit data is extracted from the following two-line orbital elements,

1 17527U 87018A   17112.94750644 -.00000203 +00000-0 -10185-3 0  9992
2 17527 099.2701 126.2614 0009973 084.0373 332.8677 14.02479671541509
Epoch (UTC): 22 April 2017 22:44:24
Eccentricity: 0.0009973
inclination: 99.2701°
perigee height: 878 km
apogee height: 892 km
right ascension of ascending node: 126.2614°
argument of perigee: 84.0373°
revolutions per day: 14.02479671
mean anomaly at epoch: 332.8677°
orbit number at epoch: 54150

The dashed part of the orbit path shows where the satellite is in the earth's shadow,  

DLR